���t,����,�O�C���x,�����t���O,�O�C���Ύ��x,�����t���O,���ԋ�C���x,�����t���O,���ԑ��Ύ��x,�����t���O,�g�C���^���N����,�����t���O,���֋�C���x,�����t���O,��󒲎����x,�����t���O
2004/4/1,0:00,8.9,0,43,0,19.5,0,40.3,0,16.3,0,16.9,0,15.8,0
2004/4/1,0:15,8.7,0,48,0,19.6,0,40.9,0,16.4,0,16.8,0,15.7,0
2004/4/1,0:30,8.1,0,51,0,20.2,0,41.1,0,16.5,0,16.8,0,15.6,0
2004/4/1,0:45,7.8,0,52,0,20.7,0,40.4,0,16.5,0,16.8,0,15.4,0
2004/4/1,1:00,7.8,0,51,0,21.3,0,39.9,0,16.6,0,16.7,0,15.3,0
2004/4/1,1:15,8.1,0,42,0,21.8,0,40.3,0,14.9,0,16.7,0,15.2,0
2004/4/1,1:30,8.1,0,44,0,22.2,0,40.4,0,14.9,0,16.7,0,15.2,0
2004/4/1,1:45,7.8,0,48,0,22.5,0,41.9,0,15,0,16.7,0,15.1,0
2004/4/1,2:00,7.9,0,44,0,22.8,0,44.2,0,15.1,0,16.7,0,15,0
2004/4/1,2:15,7.9,0,46,0,23.1,0,46.8,0,15.2,0,16.6,0,14.9,0
2004/4/1,2:30,7.8,0,46,0,23.3,0,48.3,0,15.2,0,16.6,0,14.8,0
2004/4/1,2:45,7.4,0,52,0,23.6,0,48.7,0,15.3,0,16.6,0,14.7,0
2004/4/1,3:00,7.4,0,49,0,23.7,0,47,0,15.4,0,16.5,0,14.7,0
2004/4/1,3:15,7.5,0,46,0,23.2,0,41.7,0,14,0,16.5,0,14.7,0
2004/4/1,3:30,7.2,0,50,0,22.7,0,41,0,14.1,0,16.4,0,14.6,0
2004/4/1,3:45,6.7,0,55,0,22.2,0,40.2,0,14.2,0,16.4,0,14.6,0
2004/4/1,4:00,6.8,0,53,0,21.7,0,40.2,0,14.2,0,16.3,0,14.5,0
2004/4/1,4:15,6.7,0,49,0,21.2,0,40.2,0,14.3,0,16.3,0,14.4,0
2004/4/1,4:30,6.8,0,47,0,20.8,0,40.1,0,14.4,0,16.2,0,14.4,0
2004/4/1,4:45,6.9,0,45,0,20.4,0,41.1,0,14.5,0,16.1,0,14.3,0
2004/4/1,5:00,6.8,0,47,0,20.1,0,40.5,0,14.5,0,16.1,0,14.3,0
2004/4/1,5:15,7.2,0,43,0,19.8,0,40.4,0,14.6,0,16,0,14.2,0
2004/4/1,5:30,7.2,0,43,0,19.5,0,40.3,0,14.7,0,15.9,0,14.2,0
2004/4/1,5:45,7.2,0,44,0,19.2,0,40.4,0,14.7,0,15.9,0,14.1,0
2004/4/1,6:00,6.7,0,52,0,19,0,40.5,0,14.8,0,15.8,0,14,0
2004/4/1,6:15,6.6,0,51,0,18.7,0,40.5,0,14.9,0,15.7,0,14,0
2004/4/1,6:30,6.9,0,48,0,18.5,0,40.8,0,15,0,15.6,0,13.9,0
2004/4/1,6:45,6.8,0,48,0,18.3,0,40.8,0,15,0,15.6,0,13.8,0
2004/4/1,7:00,6.9,0,49,0,18.1,0,40.7,0,13.4,0,15.5,0,13.8,0
2004/4/1,7:15,7.1,0,51,0,17.8,0,43.4,0,13.4,0,15.5,0,13.8,0
2004/4/1,7:30,7.3,0,52,0,17.7,0,44.6,0,13.5,0,15.5,0,13.8,0
2004/4/1,7:45,7.8,0,49,0,17.4,0,44.6,0,13.6,0,15.5,0,13.8,0
2004/4/1,8:00,9,0,48,0,17.1,0,45.4,0,13.7,0,15.5,0,13.8,0
2004/4/1,8:15,9.5,0,45,0,16.9,0,45,0,13.8,0,15.5,0,13.9,0
2004/4/1,8:30,10.2,0,42,0,16.7,0,44.9,0,13.8,0,15.4,0,14,0
2004/4/1,8:45,10.5,0,43,0,16.6,0,45.1,0,13.9,0,15.4,0,14.1,0
2004/4/1,9:00,11.1,0,38,0,16.5,0,45,0,14,0,15.4,0,14.2,0
2004/4/1,9:15,12,0,32,0,16.4,0,45,0,14.1,0,15.3,0,14.3,0
2004/4/1,9:30,12.8,0,31,0,16.3,0,45.1,0,14.2,0,15.3,0,14.5,0
2004/4/1,9:45,13.4,0,31,0,16.3,0,45.2,0,14.2,0,15.3,0,14.6,0
2004/4/1,10:00,13.7,0,31,0,16.3,0,45.4,0,14.3,0,15.3,0,14.7,0
2004/4/1,10:15,13.7,0,36,0,16.3,0,45.4,0,14.4,0,15.3,0,14.7,0
2004/4/1,10:30,13.6,0,38,0,16.2,0,45.6,0,14.5,0,15.3,0,14.8,0
2004/4/1,10:45,13.7,0,38,0,16.2,0,45.6,0,14.5,0,15.3,0,14.9,0
2004/4/1,11:00,14,0,40,0,16.2,0,45.8,0,14.6,0,15.3,0,15,0
2004/4/1,11:15,14.6,0,37,0,16.2,0,45.8,0,14.7,0,15.3,0,15.1,0
2004/4/1,11:30,15.1,0,34,0,16.3,0,46,0,14.8,0,15.3,0,15.2,0
2004/4/1,11:45,15.5,0,33,0,16.3,0,46,0,14.8,0,15.3,0,15.3,0
2004/4/1,12:00,15.8,0,34,0,16.3,0,46.2,0,14.9,0,15.3,0,15.4,0
2004/4/1,12:15,16.1,0,30,0,16.3,0,46.2,0,15,0,15.4,0,15.5,0
2004/4/1,12:30,15.9,0,33,0,16.4,0,46.2,0,15,0,15.4,0,15.6,0
2004/4/1,12:45,16,0,29,0,16.4,0,46.3,0,15.1,0,15.4,0,15.6,0
2004/4/1,13:00,16.2,0,32,0,16.4,0,46.2,0,15.2,0,15.4,0,15.7,0
2004/4/1,13:15,16.2,0,33,0,16.5,0,46.2,0,13.8,0,15.4,0,15.8,0
2004/4/1,13:30,16.4,0,33,0,16.7,0,46.5,0,13.9,0,15.4,0,15.8,0
2004/4/1,13:45,16.6,0,34,0,16.8,0,48.1,0,14,0,15.4,0,15.9,0
2004/4/1,14:00,16.5,0,35,0,16.9,0,47.8,0,14.1,0,15.5,0,15.9,0
2004/4/1,14:15,16.3,0,36,0,17,0,47,0,14.2,0,15.5,0,16,0
2004/4/1,14:30,16.3,0,36,0,16.9,0,47,0,14.2,0,15.5,0,16,0
2004/4/1,14:45,16.3,0,36,0,16.9,0,47,0,13.6,0,15.6,0,16.1,0
2004/4/1,15:00,16.2,0,36,0,16.9,0,47,0,13.7,0,15.6,0,16.1,0
2004/4/1,15:15,15.8,0,38,0,16.9,0,47.1,0,13.7,0,15.6,0,16.1,0
2004/4/1,15:30,15.9,0,40,0,16.9,0,47,0,13.8,0,15.6,0,16.2,0
2004/4/1,15:45,15.7,0,45,0,16.9,0,47.1,0,13.9,0,15.7,0,16.2,0
2004/4/1,16:00,15.6,0,46,0,16.9,0,47.2,0,14,0,15.7,0,16.2,0
2004/4/1,16:15,15.5,0,41,0,16.9,0,47.4,0,14.1,0,15.7,0,16.2,0
2004/4/1,16:30,15.6,0,34,0,16.8,0,47.5,0,14.2,0,15.7,0,16.2,0
2004/4/1,16:45,15.5,0,41,0,16.8,0,46.5,0,14.3,0,15.7,0,16.2,0
2004/4/1,17:00,15.4,0,43,0,16.9,0,46.9,0,14.3,0,15.7,0,16.2,0
2004/4/1,17:15,15.3,0,40,0,16.9,0,47.3,0,14.4,0,15.7,0,16.2,0
2004/4/1,17:30,14.8,0,38,0,16.9,0,47.5,0,14.5,0,15.7,0,16.2,0
2004/4/1,17:45,14,0,51,0,17,0,47.7,0,14.6,0,15.8,0,16.1,0
2004/4/1,18:00,13.3,0,57,0,17,0,47.9,0,14.7,0,15.8,0,16,0
2004/4/1,18:15,12.7,0,54,0,17,0,48,0,14.8,0,15.8,0,15.9,0
2004/4/1,18:30,12.1,0,65,0,17,0,48.1,0,14.8,0,15.8,0,15.8,0
2004/4/1,18:45,12,0,61,0,16.9,0,48.3,0,14.9,0,15.8,0,15.7,0
2004/4/1,19:00,11.8,0,63,0,16.9,0,48.4,0,15,0,15.8,0,15.6,0
2004/4/1,19:15,12,0,60,0,16.8,0,48.5,0,14,0,15.9,0,15.5,0
2004/4/1,19:30,11.4,0,68,0,16.8,0,48.5,0,14.1,0,16,0,15.5,0
2004/4/1,19:45,11.2,0,73,0,16.7,0,48.7,0,14.1,0,16,0,15.4,0
2004/4/1,20:00,11.2,0,75,0,16.7,0,49.1,0,14.2,0,16.1,0,15.3,0
2004/4/1,20:15,11.2,0,77,0,16.6,0,49.4,0,14.3,0,16.1,0,15.2,0
2004/4/1,20:30,11.2,0,76,0,16.5,0,49.8,0,14.4,0,16.1,0,15.2,0
2004/4/1,20:45,11.3,0,74,0,16.5,0,50.1,0,14.5,0,16.2,0,15.1,0
2004/4/1,21:00,11.4,0,70,0,16.4,0,50.4,0,14.5,0,16.2,0,15.1,0
2004/4/1,21:15,11.3,0,72,0,16.3,0,50.6,0,14.6,0,16.2,0,15,0
2004/4/1,21:30,11.3,0,70,0,16.3,0,50.7,0,14.7,0,16.2,0,15,0
2004/4/1,21:45,11.2,0,73,0,16.2,0,50.8,0,14.8,0,16.2,0,14.9,0
2004/4/1,22:00,11,0,76,0,16.8,0,52.1,0,14.9,0,16.1,0,14.9,0
2004/4/1,22:15,11,0,78,0,17.6,0,51.6,0,15,0,15.9,0,14.8,0
2004/4/1,22:30,11.2,0,79,0,18.5,0,50.4,0,14.2,0,15.9,0,14.8,0
2004/4/1,22:45,11.3,0,80,0,19.2,0,49.2,0,14,0,15.9,0,14.8,0
2004/4/1,23:00,11.4,0,83,0,19.8,0,48.2,0,13.7,0,15.9,0,14.8,0
2004/4/1,23:15,11.5,0,87,0,20.2,0,47.8,0,13.7,0,15.9,0,14.7,0
2004/4/1,23:30,11.5,0,91,0,20.7,0,47.6,0,13.8,0,15.9,0,14.7,0
2004/4/1,23:45,12.3,0,94,0,21.1,0,47.1,0,13.9,0,15.9,0,14.7,0
2004/4/2,0:00,13.7,0,87,0,21.5,0,46.6,0,14,0,15.9,0,14.7,0
2004/4/2,0:15,13.9,0,87,0,21.8,0,46.4,0,14.1,0,15.9,0,14.7,0
2004/4/2,0:30,13.3,0,90,0,22.1,0,45.6,0,14.2,0,15.9,0,14.8,0
2004/4/2,0:45,12.9,0,94,0,21.3,0,44.7,0,13.9,0,16,0,15,0
2004/4/2,1:00,12.8,0,96,0,20.9,0,45.2,0,14,0,16,0,15.1,0
2004/4/2,1:15,13.1,0,97,0,20.5,0,46,0,14.1,0,16.1,0,15.2,0
2004/4/2,1:30,13.9,0,98,0,20.1,0,46.8,0,14.2,0,16.1,0,15.3,0
2004/4/2,1:45,14.1,0,96,0,19.8,0,47.7,0,14.3,0,16.1,0,15.4,0
2004/4/2,2:00,14,0,96,0,19.6,0,48.7,0,14.4,0,16.1,0,15.4,0
2004/4/2,2:15,13.9,0,93,0,19.4,0,49.6,0,14.4,0,16.1,0,15.5,0
2004/4/2,2:30,13.9,0,91,0,19.2,0,50.3,0,14.5,0,16.1,0,15.5,0
2004/4/2,2:45,13.7,0,89,0,19,0,51,0,14.6,0,16.2,0,15.6,0
2004/4/2,3:00,13.5,0,85,0,18.9,0,51.6,0,14.7,0,16.2,0,15.6,0
2004/4/2,3:15,13.4,0,84,0,18.7,0,52.1,0,14.8,0,16.2,0,15.6,0
2004/4/2,3:30,13.2,0,82,0,18.6,0,52.6,0,14.8,0,16.2,0,15.6,0
2004/4/2,3:45,13.2,0,77,0,18.5,0,52.9,0,14.9,0,16.2,0,15.6,0
2004/4/2,4:00,13.1,0,78,0,18.4,0,53.3,0,15,0,16.1,0,15.6,0
2004/4/2,4:15,13.1,0,78,0,18.2,0,53.6,0,15.1,0,16.1,0,15.6,0
2004/4/2,4:30,12.9,0,79,0,18.1,0,54.1,0,15.2,0,16.1,0,15.6,0
2004/4/2,4:45,13,0,78,0,18,0,54.5,0,15.3,0,16.1,0,15.6,0
2004/4/2,5:00,12.7,0,78,0,17.9,0,54.9,0,15.4,0,16.1,0,15.5,0
2004/4/2,5:15,12.5,0,73,0,17.8,0,55,0,15.5,0,16.1,0,15.5,0
2004/4/2,5:30,12.4,0,71,0,17.8,0,54.9,0,15.6,0,16.1,0,15.4,0
2004/4/2,5:45,12.1,0,68,0,17.7,0,54.8,0,15.6,0,16,0,15.4,0
2004/4/2,6:00,11.9,0,67,0,17.6,0,54.7,0,15.7,0,16,0,15.4,0
2004/4/2,6:15,11.7,0,65,0,17.5,0,54.7,0,15.8,0,16,0,15.3,0
2004/4/2,6:30,11.7,0,65,0,17.7,0,55.3,0,14.7,0,16,0,15.2,0
2004/4/2,6:45,11.6,0,64,0,18.4,0,54.2,0,14.7,0,16,0,15.2,0
2004/4/2,7:00,11.5,0,62,0,19.1,0,53.3,0,14.8,0,16,0,15.1,0
2004/4/2,7:15,11.7,0,61,0,19.7,0,52.6,0,14.5,0,16.1,0,15.1,0
2004/4/2,7:30,11.9,0,62,0,20.4,0,53.8,0,14.5,0,16.1,0,15.1,0
2004/4/2,7:45,13.7,0,56,0,20.8,0,52.6,0,14.7,0,16.1,0,15.1,0
2004/4/2,8:00,14.2,0,53,0,20.5,0,50.5,0,14.8,0,16.2,0,15.3,0
2004/4/2,8:15,13.6,0,52,0,20.3,0,49.8,0,14.9,0,16.2,0,15.3,0
2004/4/2,8:30,13.5,0,53,0,20,0,49.1,0,14.9,0,16.2,0,15.4,0
2004/4/2,8:45,13.5,0,53,0,19.8,0,48.7,0,15.1,0,16.2,0,15.4,0
2004/4/2,9:00,13.3,0,51,0,19.6,0,48.2,0,15.2,0,16.2,0,15.5,0
2004/4/2,9:15,13.4,0,50,0,19.5,0,48.3,0,15.3,0,16.2,0,15.5,0
2004/4/2,9:30,13.5,0,51,0,19.4,0,48.5,0,15.4,0,16.2,0,15.6,0
2004/4/2,9:45,13.5,0,50,0,19.2,0,48.5,0,15.5,0,16.2,0,15.6,0
2004/4/2,10:00,13.8,0,48,0,19.1,0,48.5,0,15.6,0,16.2,0,15.7,0
2004/4/2,10:15,14.1,0,47,0,19.1,0,48.5,0,15.6,0,16.2,0,15.8,0
2004/4/2,10:30,14.2,0,44,0,19,0,48.3,0,15.7,0,16.2,0,15.9,0
2004/4/2,10:45,14.4,0,44,0,19,0,48,0,15.8,0,16.2,0,15.9,0
2004/4/2,11:00,14.5,0,41,0,18.9,0,47.8,0,15.8,0,16.2,0,16,0
2004/4/2,11:15,14.5,0,41,0,18.9,0,47.7,0,15.9,0,16.2,0,16,0
2004/4/2,11:30,14.8,0,43,0,18.9,0,47.5,0,15.9,0,16.2,0,16.1,0
2004/4/2,11:45,15,0,40,0,18.9,0,47.3,0,16,0,16.2,0,16.2,0
2004/4/2,12:00,15.1,0,39,0,18.9,0,47.1,0,16,0,16.2,0,16.3,0
2004/4/2,12:15,15.2,0,40,0,18.9,0,46.8,0,16.1,0,16.2,0,16.3,0
2004/4/2,12:30,15.1,0,39,0,19,0,46.5,0,16.1,0,16.2,0,16.4,0
2004/4/2,12:45,15.2,0,38,0,19,0,46.2,0,16.2,0,16.2,0,16.4,0
2004/4/2,13:00,15.2,0,37,0,19,0,45.9,0,16.2,0,16.2,0,16.5,0
2004/4/2,13:15,15.6,0,37,0,19,0,45.7,0,16.3,0,16.2,0,16.6,0
2004/4/2,13:30,15.8,0,36,0,19,0,45.8,0,16.3,0,16.2,0,16.6,0
2004/4/2,13:45,16,0,36,0,19,0,45.9,0,16.3,0,16.2,0,16.7,0
2004/4/2,14:00,15.9,0,32,0,19,0,45.4,0,16.4,0,16.2,0,16.7,0
2004/4/2,14:15,16,0,32,0,19,0,45.2,0,16.4,0,16.3,0,16.8,0
2004/4/2,14:30,15.9,0,34,0,19,0,45.1,0,16.5,0,16.3,0,16.9,0
2004/4/2,14:45,16,0,34,0,19,0,45.1,0,16.5,0,16.3,0,16.9,0
2004/4/2,15:00,16.2,0,35,0,19.1,0,45.1,0,16.6,0,16.3,0,17,0
2004/4/2,15:15,16.1,0,31,0,19.1,0,44.7,0,16.6,0,16.3,0,17,0
2004/4/2,15:30,16.1,0,37,0,19.1,0,44.7,0,16.6,0,16.3,0,17.1,0
2004/4/2,15:45,16,0,35,0,19.1,0,44.6,0,16.7,0,16.4,0,17.1,0
2004/4/2,16:00,15.9,0,35,0,19.1,0,44.6,0,16.7,0,16.4,0,17.2,0
2004/4/2,16:15,15.7,0,36,0,19,0,44.4,0,16.8,0,16.4,0,17.3,0
2004/4/2,16:30,15.5,0,39,0,19,0,44.3,0,16.8,0,16.5,0,17.3,0
2004/4/2,16:45,15.4,0,38,0,19,0,44.4,0,16.8,0,16.5,0,17.4,0
2004/4/2,17:00,15.1,0,40,0,19,0,44.3,0,16.9,0,16.5,0,17.4,0
2004/4/2,17:15,15.1,0,40,0,18.9,0,44.5,0,16.9,0,16.5,0,17.5,0
2004/4/2,17:30,14.8,0,41,0,18.9,0,44.5,0,16.9,0,16.5,0,17.5,0
2004/4/2,17:45,14.6,0,43,0,18.8,0,44.6,0,17,0,16.5,0,17.5,0
2004/4/2,18:00,14.3,0,42,0,18.8,0,44.6,0,17,0,16.5,0,17.4,0
2004/4/2,18:15,14.1,0,43,0,18.7,0,44.6,0,17,0,16.5,0,17.3,0
2004/4/2,18:30,13.8,0,47,0,18.7,0,44.8,0,17.1,0,16.5,0,17.2,0
2004/4/2,18:45,13.5,0,52,0,18.6,0,45.2,0,14.4,0,16.6,0,17.1,0
2004/4/2,19:00,13.2,0,48,0,18.5,0,45.4,0,14.5,0,16.6,0,16.9,0
2004/4/2,19:15,13,0,46,0,18.5,0,45.5,0,14.6,0,16.6,0,16.8,0
2004/4/2,19:30,12.8,0,47,0,18.4,0,45.6,0,14.7,0,16.6,0,16.7,0
2004/4/2,19:45,12.7,0,48,0,18.3,0,45.4,0,14.8,0,16.6,0,16.6,0
2004/4/2,20:00,12.6,0,48,0,18.2,0,45.4,0,14.9,0,16.6,0,16.5,0
2004/4/2,20:15,12.5,0,48,0,18.1,0,45.4,0,15,0,16.6,0,16.4,0
2004/4/2,20:30,12.4,0,49,0,18.1,0,45.4,0,15.1,0,16.6,0,16.3,0
2004/4/2,20:45,12.3,0,49,0,18,0,45.5,0,15.3,0,16.6,0,16.3,0
2004/4/2,21:00,12.2,0,50,0,17.9,0,45.6,0,15.4,0,16.5,0,16.2,0
2004/4/2,21:15,12.3,0,51,0,17.8,0,45.8,0,15.5,0,16.5,0,16.1,0
2004/4/2,21:30,12.1,0,53,0,17.7,0,45.9,0,15.6,0,16.5,0,16,0
2004/4/2,21:45,12.1,0,54,0,17.6,0,46.1,0,15.7,0,16.5,0,15.9,0
2004/4/2,22:00,11.9,0,55,0,17.7,0,47,0,15.8,0,16.5,0,15.8,0
2004/4/2,22:15,11.7,0,56,0,18.4,0,47.1,0,15.9,0,16.5,0,15.7,0
2004/4/2,22:30,11.8,0,56,0,19.1,0,46.7,0,16,0,16.4,0,15.6,0
2004/4/2,22:45,11.8,0,56,0,19.8,0,46.2,0,16,0,16.5,0,15.6,0
2004/4/2,23:00,11.8,0,56,0,20.6,0,45.6,0,16.1,0,16.5,0,15.5,0
2004/4/2,23:15,11.8,0,57,0,21.1,0,45,0,14.4,0,16.5,0,15.5,0
2004/4/2,23:30,11.7,0,58,0,21.6,0,44.4,0,14.4,0,16.5,0,15.4,0
2004/4/2,23:45,11.7,0,60,0,22,0,43.9,0,14.5,0,16.5,0,15.4,0
2004/4/3,0:00,11.8,0,60,0,22.3,0,43.2,0,13.9,0,16.5,0,15.4,0
2004/4/3,0:15,11.8,0,60,0,22.3,0,42.4,0,13.9,0,16.5,0,15.4,0
2004/4/3,0:30,11.7,0,61,0,22,0,42.3,0,14.1,0,16.5,0,15.4,0
2004/4/3,0:45,11.8,0,60,0,21.6,0,42.5,0,14.2,0,16.5,0,15.3,0
2004/4/3,1:00,11.8,0,59,0,21.3,0,42.9,0,14.3,0,16.5,0,15.3,0
2004/4/3,1:15,11.8,0,59,0,21,0,43.4,0,14.4,0,16.5,0,15.3,0
2004/4/3,1:30,11.7,0,58,0,20.7,0,43.7,0,14.5,0,16.5,0,15.2,0
2004/4/3,1:45,11.9,0,56,0,20.4,0,44,0,14.6,0,16.5,0,15.2,0
2004/4/3,2:00,11.9,0,55,0,20.2,0,44.3,0,14.7,0,16.5,0,15.2,0
2004/4/3,2:15,12,0,53,0,19.9,0,44.5,0,14.8,0,16.4,0,15.1,0
2004/4/3,2:30,12.2,0,49,0,19.7,0,44.7,0,15,0,16.4,0,15.1,0
2004/4/3,2:45,12.4,0,48,0,19.6,0,45,0,15.1,0,16.4,0,15.1,0
2004/4/3,3:00,12.4,0,49,0,19.4,0,45.1,0,15.2,0,16.4,0,15.1,0
2004/4/3,3:15,12.4,0,50,0,19.3,0,45.3,0,15.3,0,16.3,0,15,0
2004/4/3,3:30,12.4,0,51,0,19.1,0,45.4,0,15.4,0,16.3,0,15,0
2004/4/3,3:45,12.5,0,52,0,19,0,45.6,0,15.5,0,16.3,0,15,0
2004/4/3,4:00,12.4,0,52,0,18.9,0,45.8,0,15.6,0,16.2,0,14.9,0
2004/4/3,4:15,12.2,0,53,0,18.7,0,45.9,0,15.7,0,16.2,0,14.9,0
2004/4/3,4:30,12.3,0,54,0,18.6,0,46,0,15.8,0,16.2,0,14.9,0
2004/4/3,4:45,12.3,0,55,0,18.5,0,46.2,0,15.8,0,16.1,0,14.9,0
2004/4/3,5:00,12.3,0,56,0,18.4,0,46.3,0,15.9,0,16.1,0,14.8,0
2004/4/3,5:15,12.2,0,59,0,18.3,0,46.5,0,16,0,16.1,0,14.8,0
2004/4/3,5:30,12.3,0,60,0,18.2,0,46.6,0,16,0,16.1,0,14.8,0
2004/4/3,5:45,12.4,0,61,0,18.1,0,46.8,0,16.1,0,16.1,0,14.8,0
2004/4/3,6:00,12.3,0,62,0,18,0,47,0,16.1,0,16,0,14.8,0
2004/4/3,6:15,12.4,0,63,0,17.9,0,47.1,0,16.2,0,16,0,14.7,0
2004/4/3,6:30,12.4,0,64,0,17.8,0,47.9,0,14.4,0,16,0,14.7,0
2004/4/3,6:45,12.6,0,64,0,18.4,0,48.9,0,14.6,0,16.1,0,14.8,0
2004/4/3,7:00,12.7,0,64,0,19.1,0,48,0,14.7,0,16,0,14.8,0
2004/4/3,7:15,13.1,0,64,0,19.8,0,46.9,0,14.8,0,16.1,0,14.8,0
2004/4/3,7:30,13.4,0,63,0,20.5,0,46,0,13.9,0,16.1,0,14.9,0
2004/4/3,7:45,14.6,0,59,0,21.1,0,46.1,0,14,0,16.2,0,15.1,0
2004/4/3,8:00,15.3,0,55,0,21.5,0,45.4,0,14.1,0,16.3,0,15.3,0
2004/4/3,8:15,15.3,0,57,0,21.9,0,44.5,0,13.8,0,16.3,0,15.5,0
2004/4/3,8:30,15.5,0,56,0,22.4,0,44.2,0,13.9,0,16.3,0,15.6,0
2004/4/3,8:45,15.7,0,56,0,22.6,0,43.4,0,14,0,16.4,0,15.7,0
2004/4/3,9:00,15.2,0,60,0,22.3,0,43.3,0,14.1,0,16.4,0,15.8,0
2004/4/3,9:15,15.2,0,60,0,22,0,43.6,0,13.6,0,16.4,0,16,0
2004/4/3,9:30,15.6,0,58,0,22,0,44.6,0,14.4,0,16.5,0,16.1,0
2004/4/3,9:45,15.8,0,54,0,21.5,0,44.2,0,14.5,0,16.5,0,16.3,0
2004/4/3,10:00,15.9,0,59,0,20.8,0,45.4,0,14.6,0,16.7,0,16.5,0
2004/4/3,10:15,16,0,56,0,20.5,0,46.2,0,14.6,0,16.8,0,16.8,0
2004/4/3,10:30,16.1,0,59,0,20.2,0,46.9,0,13.8,0,16.9,0,17,0
2004/4/3,10:45,16,0,57,0,20.5,0,48.7,0,13.9,0,16.9,0,17.1,0
2004/4/3,11:00,16.2,0,59,0,21.5,0,47.5,0,13.9,0,16.9,0,17.2,0
2004/4/3,11:15,16.2,0,58,0,22.3,0,46.5,0,14,0,16.9,0,17.3,0
2004/4/3,11:30,16.4,0,56,0,23,0,45.6,0,14.1,0,17,0,17.4,0
2004/4/3,11:45,16.6,0,54,0,23.6,0,44.7,0,14.2,0,17,0,17.5,0
2004/4/3,12:00,16.7,0,54,0,24,0,44.3,0,14.3,0,17,0,17.5,0
2004/4/3,12:15,16.7,0,54,0,24.3,0,43.8,0,14.4,0,17.1,0,17.6,0
2004/4/3,12:30,16.7,0,54,0,24.6,0,43.4,0,14.5,0,17.1,0,17.7,0
2004/4/3,12:45,17,0,53,0,24.9,0,43,0,14.6,0,17.2,0,17.8,0
2004/4/3,13:00,17.1,0,53,0,25.2,0,42.6,0,14.7,0,17.2,0,17.9,0
2004/4/3,13:15,17.3,0,52,0,24.6,0,41.6,0,14.2,0,17.4,0,18.1,0
2004/4/3,13:30,17.3,0,51,0,23.9,0,41.8,0,14.3,0,17.5,0,18.3,0
2004/4/3,13:45,17.4,0,49,0,23.4,0,42.7,0,14.4,0,17.6,0,18.5,0
2004/4/3,14:00,17.5,0,47,0,23.6,0,42.5,0,14.5,0,17.6,0,18.6,0
2004/4/3,14:15,17.4,0,43,0,23.5,0,42.4,0,14.6,0,17.7,0,18.7,0
2004/4/3,14:30,17.1,0,41,0,23.4,0,42,0,14.7,0,17.7,0,18.8,0
2004/4/3,14:45,17.3,0,38,0,23.3,0,41.6,0,14.7,0,17.8,0,18.8,0
2004/4/3,15:00,17.3,0,39,0,23.2,0,41.6,0,14.8,0,17.8,0,18.9,0
2004/4/3,15:15,17.2,0,38,0,23,0,41.3,0,14.9,0,17.8,0,18.9,0
2004/4/3,15:30,17.1,0,37,0,22.9,0,41.4,0,15,0,17.9,0,18.9,0
2004/4/3,15:45,17.1,0,35,0,22.7,0,41.4,0,15.1,0,17.9,0,19,0
2004/4/3,16:00,17.1,0,33,0,22.6,0,41.5,0,15.2,0,17.9,0,19,0
2004/4/3,16:15,17,0,33,0,22.5,0,41.2,0,15.4,0,17.9,0,19,0
2004/4/3,16:30,16.7,0,41,0,22.3,0,41.1,0,15.5,0,17.9,0,19,0
2004/4/3,16:45,16.4,0,47,0,22.2,0,41.5,0,15.6,0,17.9,0,19.1,0
2004/4/3,17:00,16.2,0,49,0,22,0,42.1,0,15.7,0,17.9,0,19.1,0
2004/4/3,17:15,15.9,0,50,0,21.8,0,42.5,0,15.8,0,18,0,19.1,0
2004/4/3,17:30,15.6,0,53,0,21.6,0,42.9,0,15.9,0,18,0,19,0
2004/4/3,17:45,15.3,0,53,0,21.5,0,43.3,0,16,0,18,0,18.9,0
2004/4/3,18:00,15,0,50,0,21.3,0,43.7,0,16.1,0,18,0,18.8,0
2004/4/3,18:15,14.7,0,50,0,21.1,0,43.9,0,16.2,0,17.9,0,18.7,0
2004/4/3,18:30,14.5,0,49,0,20.9,0,44.1,0,16.3,0,17.9,0,18.6,0
2004/4/3,18:45,14.3,0,50,0,20.8,0,44.2,0,16.4,0,17.9,0,18.5,0
2004/4/3,19:00,14.2,0,50,0,20.6,0,44.4,0,16.4,0,17.9,0,18.4,0
2004/4/3,19:15,14.1,0,51,0,20.5,0,44.4,0,16.6,0,17.9,0,18.2,0
2004/4/3,19:30,14,0,52,0,20.3,0,44.6,0,16.6,0,17.9,0,18.1,0
2004/4/3,19:45,14,0,52,0,20.1,0,44.8,0,16.7,0,17.9,0,18,0
2004/4/3,20:00,13.7,0,52,0,20,0,45,0,16.8,0,17.9,0,17.9,0
2004/4/3,20:15,13.6,0,50,0,19.9,0,45.1,0,16.9,0,17.8,0,17.9,0
2004/4/3,20:30,13.6,0,49,0,19.7,0,45.1,0,17,0,17.8,0,17.8,0
2004/4/3,20:45,13.4,0,48,0,19.6,0,45.2,0,17.1,0,17.8,0,17.7,0
2004/4/3,21:00,13.4,0,49,0,19.5,0,45.2,0,17.2,0,17.8,0,17.6,0
2004/4/3,21:15,13.2,0,49,0,19.4,0,45.3,0,17.2,0,17.7,0,17.5,0
2004/4/3,21:30,13.1,0,52,0,19.3,0,45.4,0,17.3,0,17.7,0,17.5,0
2004/4/3,21:45,13,0,54,0,19.2,0,45.5,0,17.4,0,17.7,0,17.4,0
2004/4/3,22:00,12.7,0,57,0,19.1,0,45.6,0,17.5,0,17.6,0,17.3,0
2004/4/3,22:15,12.6,0,58,0,19.1,0,46.1,0,17.5,0,17.6,0,17.2,0
2004/4/3,22:30,12.1,0,63,0,19.1,0,47,0,17.6,0,17.5,0,17.1,0
2004/4/3,22:45,12,0,62,0,19.1,0,47.7,0,17.7,0,17.5,0,17,0
2004/4/3,23:00,11.9,0,63,0,19.1,0,48.1,0,17.7,0,17.5,0,16.9,0
2004/4/3,23:15,11.9,0,65,0,19,0,48.1,0,17.8,0,17.4,0,16.8,0
2004/4/3,23:30,11.7,0,64,0,19,0,48.2,0,17.9,0,17.4,0,16.7,0
2004/4/3,23:45,11.4,0,67,0,19,0,48.9,0,17.9,0,17.3,0,16.6,0
2004/4/4,0:00,11.2,0,70,0,19.7,0,48.7,0,18,0,17.3,0,16.6,0
2004/4/4,0:15,11,0,73,0,19.9,0,47.4,0,14.9,0,17.3,0,16.5,0
2004/4/4,0:30,10.9,0,74,0,19.8,0,47,0,15,0,17.2,0,16.4,0
2004/4/4,0:45,10.9,0,74,0,19.6,0,46.9,0,15.1,0,17.2,0,16.3,0
2004/4/4,1:00,10.7,0,76,0,19.4,0,47.3,0,14,0,17.3,0,16.3,0
2004/4/4,1:15,10.5,0,81,0,19.2,0,47.9,0,14.1,0,17.3,0,16.2,0
2004/4/4,1:30,10.5,0,83,0,19.1,0,48.5,0,14.2,0,17.2,0,16.2,0
2004/4/4,1:45,10.6,0,83,0,19,0,48.7,0,14.3,0,17.1,0,16.1,0
2004/4/4,2:00,10.5,0,84,0,18.8,0,49.2,0,14.4,0,17.1,0,16,0
2004/4/4,2:15,10.4,0,83,0,18.6,0,49.6,0,14.5,0,17.1,0,16,0
2004/4/4,2:30,10.4,0,82,0,18.5,0,49.9,0,14.6,0,17,0,15.9,0
2004/4/4,2:45,10.2,0,82,0,18.4,0,50.1,0,14.7,0,17,0,15.9,0
2004/4/4,3:00,10.2,0,84,0,18.2,0,50.5,0,14.8,0,17,0,15.8,0
2004/4/4,3:15,10.1,0,85,0,18.1,0,50.8,0,14.8,0,16.9,0,15.7,0
2004/4/4,3:30,9.8,0,84,0,18,0,51.1,0,14.9,0,16.9,0,15.6,0
2004/4/4,3:45,9.5,0,85,0,17.8,0,51.3,0,15,0,16.8,0,15.6,0
2004/4/4,4:00,9.3,0,82,0,17.7,0,51.4,0,15.1,0,16.7,0,15.5,0
2004/4/4,4:15,9.2,0,85,0,17.6,0,51.5,0,15.2,0,16.7,0,15.4,0
2004/4/4,4:30,9,0,84,0,17.5,0,51.7,0,15.3,0,16.6,0,15.4,0
2004/4/4,4:45,8.9,0,84,0,17.3,0,51.7,0,15.4,0,16.5,0,15.3,0
2004/4/4,5:00,8.9,0,85,0,17.2,0,52,0,15.5,0,16.5,0,15.2,0
2004/4/4,5:15,8.8,0,84,0,17.1,0,51.9,0,15.5,0,16.4,0,15.1,0
2004/4/4,5:30,8.9,0,84,0,17,0,52.1,0,15.6,0,16.4,0,15.1,0
2004/4/4,5:45,9,0,83,0,16.9,0,52.2,0,15.7,0,16.3,0,15,0
2004/4/4,6:00,8.8,0,81,0,16.8,0,52.3,0,15.8,0,16.2,0,14.9,0
2004/4/4,6:15,8.9,0,82,0,16.7,0,52.3,0,15.9,0,16.2,0,14.9,0
2004/4/4,6:30,8.9,0,82,0,16.6,0,52.5,0,16,0,16.1,0,14.8,0
2004/4/4,6:45,8.8,0,81,0,16.5,0,52.7,0,16.1,0,16.1,0,14.8,0
2004/4/4,7:00,8.8,0,80,0,16.4,0,52.7,0,16.1,0,16,0,14.7,0
2004/4/4,7:15,8.7,0,81,0,16.3,0,52.9,0,16.2,0,16,0,14.7,0
2004/4/4,7:30,8.7,0,84,0,16.2,0,53.1,0,16.3,0,15.9,0,14.7,0
2004/4/4,7:45,8.8,0,81,0,16.1,0,53.2,0,16.3,0,15.9,0,14.7,0
2004/4/4,8:00,9.2,0,78,0,16.1,0,53.6,0,16.4,0,15.9,0,14.6,0
2004/4/4,8:15,9.4,0,76,0,16.1,0,55.3,0,14.3,0,15.9,0,14.6,0
2004/4/4,8:30,9.9,0,76,0,16,0,56,0,14.3,0,15.8,0,14.7,0
2004/4/4,8:45,10.1,0,74,0,16,0,55.6,0,14.4,0,15.8,0,14.8,0
2004/4/4,9:00,10,0,76,0,15.9,0,55.4,0,14.5,0,15.8,0,14.8,0
2004/4/4,9:15,10.3,0,77,0,16.6,0,55.8,0,14.6,0,15.7,0,14.8,0
2004/4/4,9:30,10.5,0,73,0,17.6,0,54.5,0,14.6,0,15.7,0,14.9,0
2004/4/4,9:45,11.3,0,70,0,18.5,0,52.9,0,14.7,0,15.7,0,15,0
2004/4/4,10:00,11.8,0,65,0,18.7,0,51.2,0,14.8,0,15.7,0,15.1,0
2004/4/4,10:15,12,0,61,0,18.7,0,50.4,0,14.9,0,15.7,0,15.3,0
2004/4/4,10:30,12.2,0,60,0,18.7,0,50,0,14.9,0,15.7,0,15.4,0
2004/4/4,10:45,12.6,0,58,0,18.7,0,49.8,0,15,0,15.7,0,15.6,0
2004/4/4,11:00,12.9,0,53,0,18.7,0,49.5,0,15.1,0,15.7,0,15.7,0
2004/4/4,11:15,13.2,0,53,0,18.7,0,49.2,0,15.2,0,15.7,0,15.8,0
2004/4/4,11:30,13.5,0,55,0,18.7,0,48.9,0,15.3,0,15.7,0,16,0
2004/4/4,11:45,12.9,0,58,0,18.7,0,48.8,0,15.4,0,15.7,0,16,0
2004/4/4,12:00,12.6,0,57,0,18.6,0,49,0,13.5,0,15.7,0,16.1,0
2004/4/4,12:15,12.8,0,57,0,18.5,0,49.7,0,13.6,0,15.8,0,16.2,0
2004/4/4,12:30,13,0,55,0,18.4,0,49.9,0,13.7,0,15.8,0,16.3,0
2004/4/4,12:45,13.3,0,48,0,18.3,0,50.1,0,13.8,0,15.8,0,16.4,0
2004/4/4,13:00,12.9,0,50,0,18.2,0,50,0,13.9,0,15.8,0,16.4,0
2004/4/4,13:15,11.8,0,62,0,18.1,0,50.2,0,13.9,0,15.8,0,16.4,0
2004/4/4,13:30,11.3,0,68,0,18.5,0,50.5,0,14,0,15.8,0,16.4,0
2004/4/4,13:45,11.2,0,70,0,19.3,0,49.9,0,14.1,0,15.8,0,16.3,0
2004/4/4,14:00,11.1,0,67,0,19.9,0,48.7,0,14.2,0,15.8,0,16.2,0
2004/4/4,14:15,11.2,0,66,0,20.5,0,48,0,14.3,0,15.9,0,16.2,0
2004/4/4,14:30,11.4,0,65,0,21.2,0,48,0,14.4,0,15.9,0,16.2,0
2004/4/4,14:45,11.7,0,64,0,21.7,0,48.2,0,14.5,0,15.9,0,16.1,0
2004/4/4,15:00,11.6,0,64,0,22,0,47.6,0,13.7,0,15.9,0,16.1,0
2004/4/4,15:15,11.5,0,68,0,22.3,0,47.4,0,13.8,0,16,0,16.1,0
2004/4/4,15:30,11.7,0,67,0,22.6,0,47.1,0,13.9,0,16,0,16.1,0
2004/4/4,15:45,11.7,0,59,0,22.9,0,46.7,0,13.9,0,16,0,16.1,0
2004/4/4,16:00,11.9,0,57,0,22.6,0,43.9,0,13.8,0,16.1,0,16.1,0
2004/4/4,16:15,11.9,0,56,0,22,0,43.6,0,13.9,0,16.1,0,16.1,0
2004/4/4,16:30,11.9,0,52,0,21.6,0,43.7,0,13.9,0,16.1,0,16.1,0
2004/4/4,16:45,12,0,51,0,21.2,0,43.8,0,14,0,16.1,0,16.1,0
2004/4/4,17:00,12,0,50,0,20.9,0,43.9,0,14.1,0,16.1,0,16.1,0
2004/4/4,17:15,11.9,0,50,0,20.5,0,44,0,14.2,0,16.1,0,16.1,0
2004/4/4,17:30,11.8,0,50,0,20.2,0,44.3,0,14.3,0,16.1,0,16,0
2004/4/4,17:45,11.9,0,51,0,19.9,0,44.5,0,14.3,0,16.1,0,16,0
2004/4/4,18:00,11.8,0,49,0,19.7,0,44.6,0,14.4,0,16,0,15.9,0
2004/4/4,18:15,11.8,0,49,0,19.4,0,44.8,0,14.5,0,16,0,15.9,0
2004/4/4,18:30,11.5,0,50,0,19.2,0,45,0,14.6,0,16,0,15.8,0
2004/4/4,18:45,11.4,0,51,0,19,0,45.2,0,14.6,0,16,0,15.7,0
2004/4/4,19:00,11.2,0,51,0,18.8,0,45.4,0,14.7,0,15.9,0,15.6,0
2004/4/4,19:15,11.1,0,51,0,18.6,0,45.6,0,14.8,0,15.9,0,15.5,0
2004/4/4,19:30,11.1,0,51,0,18.4,0,45.7,0,14.9,0,15.9,0,15.4,0
2004/4/4,19:45,11,0,52,0,18.3,0,45.9,0,15,0,15.8,0,15.3,0
2004/4/4,20:00,10.9,0,52,0,18.1,0,46.1,0,15,0,15.8,0,15.2,0
2004/4/4,20:15,10.9,0,52,0,17.9,0,46.2,0,15.1,0,15.8,0,15.2,0
2004/4/4,20:30,10.9,0,53,0,17.8,0,46.3,0,15.2,0,15.7,0,15.1,0
2004/4/4,20:45,10.8,0,54,0,17.6,0,46.7,0,15,0,15.7,0,15,0
2004/4/4,21:00,10.6,0,53,0,18,0,47.2,0,13.8,0,15.7,0,14.9,0
2004/4/4,21:15,10.5,0,57,0,18.7,0,46.6,0,13.3,0,15.7,0,14.8,0
2004/4/4,21:30,10.3,0,56,0,19.3,0,45.8,0,13.4,0,15.7,0,14.7,0
2004/4/4,21:45,10.1,0,59,0,20,0,44.7,0,13.5,0,15.7,0,14.7,0
2004/4/4,22:00,9.5,0,63,0,20.6,0,43.8,0,13.6,0,15.7,0,14.6,0
2004/4/4,22:15,9,0,67,0,21.3,0,43,0,13.6,0,15.7,0,14.5,0
2004/4/4,22:30,8.5,0,69,0,21.7,0,42.6,0,13.7,0,15.6,0,14.4,0
2004/4/4,22:45,8.7,0,67,0,21.2,0,42.3,0,13.8,0,15.6,0,14.3,0
2004/4/4,23:00,8.7,0,66,0,21,0,43.1,0,13.9,0,15.6,0,14.3,0
2004/4/4,23:15,8.1,0,71,0,20.7,0,44.5,0,14,0,15.6,0,14.2,0
2004/4/4,23:30,8.2,0,70,0,20.4,0,45.5,0,14.1,0,15.6,0,14.1,0
2004/4/4,23:45,7.9,0,71,0,20.1,0,46.1,0,14.1,0,15.5,0,14,0
2004/4/5,0:00,7.6,0,73,0,20.4,0,45.9,0,14.2,0,15.5,0,13.9,0
2004/4/5,0:15,7.3,0,74,0,20.9,0,45.8,0,14.3,0,15.5,0,13.9,0
2004/4/5,0:30,7.2,0,74,0,21.4,0,45.3,0,14.4,0,15.5,0,13.8,0
2004/4/5,0:45,7.3,0,72,0,21.8,0,44.6,0,14.5,0,15.5,0,13.7,0
2004/4/5,1:00,7.4,0,70,0,22.2,0,43.7,0,14.5,0,15.4,0,13.7,0